CZ-6A DEB

Satellite information

Favourite Embed

Satellite Type and Status

DEBRISIN ORBIT

Key statistics

Satellite CZ-6A DEB at a glance.

Uptime

910

Days in orbit

Revolutions

≈ 14.3

Per day

Orbit

SSO

Sun Synchronous Orbit

Inclination

98.7

Latest

Satellite identification and parameters

Extended collection of information and parameters for CZ-6A DEB.

Object identification

Identified? True

Debris? True

Object name: CZ-6A DEB

International designator: 2022-151LN

Object number (NORAD): 54562

Object ID (CCSDS): 54562

Country: PEOPLES REPUBLIC OF CHINA (PRC)

Current information (Y/N): Y

RCS size: SMALL

Orbital parameters

Period: 100.653 minutes

Inclination: 98.7301 deg

SMA: 7167.684 km

Apoapsis: 835.552 km

Periapsis: 743.547 km

RAAN: 150.1789 deg

Eccentricy: 0.006418

Argument of periapsis: 74.6707 deg

Mean anomaly: 286.1556 deg

Mean motion: 14.3065347 rev/day

Mean motion (dot): 0.00002044 rev/day2

B* drag term: 0.00078142 1/REarth

Two-line elements (TLE)

Creation date: May 8, 2025, 3:01 a.m.

Reference frame: TEME

Reference center: EARTH

Epoch: May 7, 2025, 12:55 a.m. UTC

TLE line 0: 0 CZ-6A DEB

TLE line 1: 1 54562U 22151LN 25127.03849677 .00002044 00000-0 78142-3 0 9999

TLE line 2: 2 54562 98.7301 150.1789 0064180 74.6707 286.1556 14.30653470129214

Live tracking on map

Real-time ground track for satellite CZ-6A DEB.

In-orbit conjunctions

A list of the most updated potential collisions computed for object CZ-6A DEB.

Target Orbit TCA Probability of collision Miss distance Type
METEOR 2-8 DEB LEO 2025-02-02 12:41:04 0.0001200137 285.0 (m) DEBRIS
NOAA 16 DEB SSO 2024-11-13 16:17:34 0.001383118 129.0 (m) DEBRIS
SL-3 R/B LEO 2024-10-27 01:38:08 0.001128625 92.0 (m) ROCKET BODY

Associated space launch

Chinese satellite reported for atmospheric/ocean/environmental/spatial parameter research purposes, details TBD.

CZ-6A DEB was lifted into orbit during the mission ‘Long March 6A | Yunhai 3’, on board a Long March 6A space rocket.

The launch took place on Nov. 11, 2022, 10:52 p.m. from Launch Complex 9A.

For more information about the launch, click the button.

Launch to space Long March 6A | Yunhai 3
Long March 6A | Yunhai 3

Agency: N/A

Status: Launch Successful

Launch date: Nov. 11, 2022, 10:52 p.m. UTC

Rocket: Long March 6A

Launch pad: Launch Complex 9A

Location: Taiyuan Satellite Launch Center, People's Republic of China

...

Latest news about this satellite

There are no fresh news available about this satellite. Check back as we update our databases every day.


Newsletter sign-up

Weekly statistics, charts and insights to help you stay on top of the space industry.